428P/Gibbs (2014)

Japanese version
Home page
Updated on October 6, 2021

---------------------------------------------------------------------

* Profile

Designation 428P/2014 W12
Discovery Date November 30, 2014
Magnitude 18.3 mag
Discoverer A. R. Gibbs (Mount Lemmon)

* Pictures

* Orbital Elements

Epoch 2014 Oct. 30.0 TT = JDT 2456960.5                                         
T 2014 Nov. 15.10718 TT                                 Rudenko                 
q   1.6745969            (2000.0)            P               Q                  
n   0.15148346     Peri.   36.96764     +0.90983318     +0.39437949             
a   3.4851855      Node   299.32538     -0.40728416     +0.78903809             
e   0.5195100      Incl.    8.51583     -0.07951851     +0.47104535             
P   6.51                                                                        
From 77 observations 2014 Nov. 30-2021 Aug. 17, mean residual 0".7.             

* Magnitudes Graph

        m1 = 14.0 + 5 log d + 10.0 log r

---------------------------------------------------------------------

The orbital elements are published on M.P.E.C. 2021-Q47.
The magnitudes graphs are made with Comet for Windows.

---------------------------------------------------------------------

Copyright(C) Seiichi Yoshida (comet@aerith.net). All rights reserved.